This is the latest recevied weather packets stored in our database for station/object WMKJ. If no packets are shown the sender has not sent any weather packets the latest 10 day(s).
| Time | Temp. | Humidity | Pressure | Rain* | Wind** | Luminosity | Snow |
|---|---|---|---|---|---|---|---|
| 1777507833 | 25.56° C | 88% | 1009 hPa | - | - | - | - |
| 1777504215 | 23.89° C | 94% | 1009 hPa | - | - | - | - |
| 1777501189 | 23.89° C | 94% | 1009 hPa | - | - | - | - |
| 1777500615 | 25° C | 88% | 1008 hPa | - | - | - | - |
| 1777497015 | 25° C | 88% | 1008 hPa | - | - | - | - |
| 1777493988 | 25° C | 88% | 1008 hPa | - | - | - | - |
| 1777493430 | 25° C | 88% | 1009 hPa | - | - | - | - |
| 1777489815 | 25° C | 88% | 1009 hPa | - | - | - | - |
| 1777486215 | 25° C | 94% | 1009 hPa | - | - | - | - |
| 1777482615 | 25° C | 94% | 1010 hPa | - | - | - | - |
| 1777479019 | 25° C | 94% | 1010 hPa | - | - | - | - |
| 1777475425 | 25° C | 94% | 1010 hPa | - | - | - | - |
| 1777471815 | 25° C | 88% | 1010 hPa | - | - | - | - |
| 1777468215 | 25° C | 88% | 1009 hPa | - | - | - | - |
| 1777464619 | 25.56° C | 83% | 1008 hPa | - | - | - | - |
| 1777461014 | 25.56° C | 83% | 1007 hPa | - | - | - | - |
| 1777457425 | 26.67° C | 78% | 1007 hPa | - | - | - | - |
| 1777453814 | 27.78° C | 74% | 1006 hPa | - | - | - | - |
| 1777450218 | 33.89° C | 59% | 1005 hPa | - | - | - | - |
| 1777446614 | 35° C | 56% | 1006 hPa | - | - | - | - |
| 1777443027 | 33.89° C | 56% | 1007 hPa | - | - | - | - |
| 1777439413 | 32.78° C | 62% | 1009 hPa | - | - | - | - |
| 1777435818 | 32.78° C | 62% | 1009 hPa | - | - | - | - |
| 1777432213 | 31.67° C | 66% | 1010 hPa | - | - | - | - |
| 1777428623 | 30° C | 74% | 1010 hPa | - | - | - | - |
* Rain since midnight (hover to see other rain measurements)
** Current wind speed in m/s (hover to see current wind gust speed)